Location: Newark
(13.8117°N, 3.6025°W)
Time: 08:34:57
(UTC+00:00)

Vanguard 2 - Pass Details

Date: 31 August 2019
Orbit: 554 x 2937 km, 32.9° (Epoch: 23 September)

Event Time Altitude Azimuth Distance (km) Brightness Sun altitude
Rises 07:39:50 0° 240° (WSW) 3,491 10.4 22.6°
Reaches altitude 10° 07:42:46 10° 241° (WSW) 2,287 9.5 23.3°
Maximum altitude 07:47:45 79° 326° (NNW) 618 7.4 24.5°
Drops below altitude 10° 07:51:43 10° 55° (NE) 1,824 10.6 25.4°
Sets 07:53:49 0° 57° (ENE) 2,717 11.3 26.0°
